FW1683 Weather Reports


Display with metric or nautical units.
time (UTC)temp
F
wind
direction
speed
MPH
gust
MPH
rain 1hr
in
rain 24hr
in
rain mn
in
humidity
%
barometer
mb
20260903165003 87 91 8.0 12.0 0.00 0.00 0.00 57 1019.8
20260903164004 87 96 8.0 13.0 0.00 0.00 0.00 57 1019.8
20260903163006 89 82 7.0 12.0 0.00 0.00 0.00 56 1019.7
20260903162004 88 96 7.0 12.0 0.00 0.00 0.00 58 1019.7
20260903161004 87 110 7.0 12.0 0.00 0.00 0.00 56 1019.8
20260903160005 87 118 7.0 12.0 0.00 0.00 0.00 61 1019.8
20260903155004 88 109 7.0 11.0 0.00 0.00 0.00 58 1019.9
20260903154004 88 117 8.0 12.0 0.00 0.00 0.00 60 1019.8
20260903153005 88 107 8.0 12.0 0.00 0.00 0.00 57 1019.8
20260903152004 89 109 8.0 12.0 0.00 0.00 0.00 57 1020.0
20260903151004 90 98 7.0 12.0 0.00 0.00 0.00 56 1019.9
20260903150005 89 114 7.0 11.0 0.00 0.00 0.00 54 1020.0
20260903145003 89 125 8.0 13.0 0.00 0.00 0.00 54 1020.1
20260903144005 89 103 9.0 13.0 0.00 0.00 0.00 53 1020.2
20260903143004 90 106 7.0 12.0 0.00 0.00 0.00 51 1020.2
20260903142007 90 120 9.0 13.0 0.00 0.00 0.00 49 1020.3
20260903140006 92 95 8.0 13.0 0.00 0.00 0.00 47 1020.4
20260903135006 92 92 8.0 12.0 0.00 0.00 0.00 46 1020.4
20260903134028 91 118 8.0 11.0 0.00 0.00 0.00 44 1020.5
20260903133004 91 109 8.0 13.0 0.00 0.00 0.00 46 1020.6
20260903132005 91 111 7.0 12.0 0.00 0.00 0.00 46 1020.7
20260903131004 92 98 7.0 12.0 0.00 0.00 0.00 45 1020.8
20260903130007 92 102 6.0 10.0 0.00 0.00 0.00 44 1020.8
20260903125004 91 104 7.0 10.0 0.00 0.00 0.00 43 1020.9
20260903123004 90 114 6.0 10.0 0.00 0.00 0.00 46 1021.1
20260903122004 90 124 6.0 10.0 0.00 0.00 0.00 48 1021.1
20260903121004 89 113 6.0 10.0 0.00 0.00 0.00 54 1021.2
20260903120005 89 135 6.0 10.0 0.00 0.00 0.00 57 1021.2
20260903115004 89 126 6.0 10.0 0.00 0.00 0.00 57 1021.3
20260903114004 90 110 7.0 11.0 0.00 0.00 0.00 58 1021.3
20260903113004 88 116 6.0 10.0 0.00 0.00 0.00 61 1021.5
20260903112004 88 114 6.0 11.0 0.00 0.00 0.00 61 1021.5
20260903111004 88 134 5.0 9.0 0.00 0.00 0.00 61 1021.6
20260903110005 87 136 7.0 12.0 0.00 0.00 0.00 64 1021.8
20260903105004 87 104 6.0 9.0 0.00 0.00 0.00 64 1021.9
20260903104005 87 159 6.0 10.0 0.00 0.00 0.00 64 1022.0
20260903103004 87 122 6.0 11.0 0.00 0.00 0.00 64 1022.1
20260903100004 87 150 6.0 9.0 0.00 0.00 0.00 64 1022.1
20260903094004 87 161 4.0 7.0 0.00 0.00 0.00 63 1022.1
20260903092005 86 251 3.0 4.0 0.00 0.00 0.00 64 1022.1
20260903091004 85 214 3.0 5.0 0.00 0.00 0.00 66 1022.1
20260903090005 87 248 3.0 5.0 0.00 0.00 0.00 64 1022.1
20260903085004 85 232 3.0 5.0 0.00 0.00 0.00 66 1022.0
20260903084004 85 274 4.0 5.0 0.00 0.00 0.00 66 1021.9
20260903082004 87 7 2.0 4.0 0.00 0.00 0.00 65 1021.9
20260903081005 85 292 2.0 4.0 0.00 0.00 0.00 68 1021.9
20260903080006 83 296 2.0 4.0 0.00 0.00 0.00 71 1021.9
20260903074005 83 298 2.0 3.0 0.00 0.00 0.00 72 1021.9
20260903072004 80 303 3.0 4.0 0.00 0.00 0.00 77 1021.9
20260903071007 79 297 3.0 5.0 0.00 0.00 0.00 78 1021.8
20260903070004 78 307 5.0 7.0 0.00 0.00 0.00 80 1021.8
20260903065003 78 297 4.0 7.0 0.00 0.00 0.00 81 1021.8
20260903063008 77 269 3.0 4.0 0.00 0.00 0.00 84 1021.6
20260903062004 77 271 2.0 4.0 0.00 0.00 0.00 86 1021.5
20260903061005 76 270 2.0 3.0 0.00 0.00 0.00 86 1021.4
20260903060006 77 325 2.0 4.0 0.00 0.00 0.00 87 1021.2
20260903055004 76 320 2.0 4.0 0.00 0.00 0.00 87 1021.0
20260903054005 76 331 1.0 3.0 0.00 0.00 0.00 87 1020.9
20260903053006 76 329 2.0 4.0 0.00 0.00 0.00 88 1020.9
20260903052004 76 322 2.0 4.0 0.00 0.00 0.00 87 1020.8
20260903051005 76 304 3.0 5.0 0.00 0.00 0.00 87 1020.7
20260903050005 76 304 4.0 6.0 0.00 0.00 0.00 87 1020.7
20260903045004 76 301 3.0 5.0 0.00 0.00 0.00 88 1020.7
20260903044005 76 293 3.0 5.0 0.00 0.00 0.00 89 1020.7
20260903043006 76 270 2.0 4.0 0.00 0.00 0.00 90 1020.6
20260903042031 76 268 2.0 4.0 0.00 0.00 0.00 90 1020.5
20260903041005 76 256 3.0 4.0 0.00 0.00 0.00 90 1020.4
20260903040008 77 260 3.0 4.0 0.00 0.00 0.00 90 1020.4
20260903035005 77 283 1.0 2.0 0.00 0.00 0.00 89 1020.3
20260903034008 77 338 1.0 2.0 0.00 0.00 0.00 89 1020.4
20260903032007 78 353 1.0 2.0 0.00 0.00 0.00 88 1020.4
20260903031004 78 339 2.0 3.0 0.00 0.00 0.00 88 1020.4
20260903030006 78 356 1.0 2.0 0.00 0.00 0.00 87 1020.4
20260903025005 78 327 1.0 2.0 0.00 0.00 0.00 87 1020.4
20260903024004 78 322 1.0 2.0 0.00 0.00 0.00 87 1020.4
20260903023007 78 336 1.0 2.0 0.00 0.00 0.00 87 1020.4
20260903022011 78 270 1.0 2.0 0.00 0.00 0.00 87 1020.4
20260903020005 78 273 2.0 3.0 0.00 0.00 0.00 88 1020.5
20260903014005 78 274 2.0 3.0 0.00 0.00 0.00 88 1020.5
20260903012004 78 257 2.0 3.0 0.00 0.00 0.00 88 1020.6
20260903011004 78 270 2.0 3.0 0.00 0.00 0.00 88 1020.5
20260903010008 78 268 1.0 2.0 0.00 0.00 0.00 88 1020.6
20260903001004 79 261 2.0 3.0 0.00 0.00 0.00 88 1020.9
20260903000009 79 265 3.0 4.0 0.00 0.00 0.00 88 1021.0
20260902235005 79 267 3.0 5.0 0.00 0.00 0.00 88 1020.9
20260902234005 79 264 3.0 5.0 0.00 0.00 0.00 88 1020.9
20260902233006 79 270 2.0 4.0 0.00 0.00 0.00 87 1020.9
20260902223005 80 258 2.0 4.0 0.00 0.00 0.00 86 1020.9
20260902222005 80 254 2.0 3.0 0.00 0.00 0.00 85 1020.9
20260902215004 80 228 2.0 3.0 0.00 0.00 0.00 83 1020.9
20260902213008 80 231 2.0 3.0 0.00 0.00 0.00 84 1020.8
20260902212005 80 222 2.0 4.0 0.00 0.00 0.00 84 1020.9
20260902211004 80 225 3.0 4.0 0.00 0.00 0.00 83 1020.9
20260902210007 80 223 3.0 5.0 0.00 0.00 0.00 82 1020.9
20260902205010 81 114 1.0 3.0 0.00 0.00 0.00 81 1020.7
20260902204009 81 49 2.0 3.0 0.00 0.00 0.00 82 1020.7
20260902203021 81 44 2.0 4.0 0.00 0.00 0.00 82 1020.5
20260902202005 81 49 2.0 4.0 0.00 0.00 0.00 81 1020.4
20260902201004 81 76 4.0 6.0 0.00 0.00 0.00 81 1020.4
20260902200007 81 58 4.0 6.0 0.00 0.00 0.00 80 1020.2
20260902194006 82 64 3.0 5.0 0.00 0.00 0.00 80 1019.9
20260902192004 82 46 4.0 6.0 0.00 0.00 0.00 79 1019.7
20260902191005 82 64 5.0 7.0 0.00 0.00 0.00 78 1019.5
20260902185005 82 49 6.0 10.0 0.00 0.00 0.00 76 1019.1
20260902184006 83 50 6.0 9.0 0.00 0.00 0.00 75 1019.0
20260902183006 83 53 5.0 7.0 0.00 0.00 0.00 74 1019.0
20260902182004 83 69 5.0 8.0 0.00 0.00 0.00 75 1019.0
20260902181028 83 74 5.0 8.0 0.00 0.00 0.00 74 1019.1
20260902180007 83 73 5.0 9.0 0.00 0.00 0.00 72 1019.2
20260902175004 84 70 7.0 10.0 0.00 0.00 0.00 70 1019.1
20260902174006 84 63 7.0 10.0 0.00 0.00 0.00 70 1019.1
20260902173006 85 73 7.0 11.0 0.00 0.00 0.00 68 1019.0
20260902172004 87 57 6.0 10.0 0.00 0.00 0.00 65 1019.0
20260902171004 87 76 6.0 10.0 0.00 0.00 0.00 65 1018.9
20260902170004 87 76 7.0 11.0 0.00 0.00 0.00 64 1018.8